TimeCST,TemperatureF,Dew PointF,Humidity,Sea Level PressureIn,VisibilityMPH,Wind Direction,Wind SpeedMPH,Gust SpeedMPH,PrecipitationIn,Events,Conditions,WindDirDegrees,DateUTC
12:15 AM,25.5,20.7,82,30.19,10.0,SSW,8.1,-,N/A,,Clear,210,2013-01-05 06:15:00
12:35 AM,26.8,21.7,81,30.18,10.0,SSW,4.6,-,N/A,,Clear,200,2013-01-05 06:35:00
12:55 AM,26.2,22.1,84,30.17,10.0,SSW,10.4,-,N/A,,Clear,210,2013-01-05 06:55:00
1:15 AM,27.7,22.6,81,30.17,10.0,SSW,8.1,-,N/A,,Clear,210,2013-01-05 07:15:00
1:35 AM,26.8,22.1,83,30.17,10.0,SSW,5.8,-,N/A,,Clear,210,2013-01-05 07:35:00
1:55 AM,27.5,22.8,83,30.17,10.0,SSW,4.6,-,N/A,,Clear,210,2013-01-05 07:55:00
2:15 AM,27.5,22.8,83,30.17,10.0,SSW,4.6,-,N/A,,Clear,210,2013-01-05 08:15:00
2:35 AM,26.8,22.1,83,30.17,10.0,SSW,6.9,-,N/A,,Clear,200,2013-01-05 08:35:00
2:55 AM,25.3,21.2,84,30.17,10.0,SSW,10.4,-,N/A,,Clear,200,2013-01-05 08:55:00
3:15 AM,27.0,23.0,85,30.16,10.0,SSW,10.4,-,N/A,,Clear,210,2013-01-05 09:15:00
3:35 AM,25.5,21.2,84,30.16,10.0,SSW,9.2,-,N/A,,Clear,200,2013-01-05 09:35:00
3:55 AM,25.7,21.7,85,30.16,10.0,SSW,9.2,-,N/A,,Clear,200,2013-01-05 09:55:00
4:15 AM,25.7,21.6,84,30.15,10.0,SSW,9.2,-,N/A,,Clear,200,2013-01-05 10:15:00
4:35 AM,26.4,22.1,84,30.14,10.0,SSW,8.1,-,N/A,,Clear,200,2013-01-05 10:35:00
4:55 AM,27.3,22.6,83,30.13,10.0,South,8.1,-,N/A,,Clear,190,2013-01-05 10:55:00
5:15 AM,24.4,20.7,86,30.12,10.0,SSW,8.1,-,N/A,,Clear,200,2013-01-05 11:15:00
5:35 AM,25.9,22.1,86,30.12,10.0,SSW,10.4,-,N/A,,Clear,200,2013-01-05 11:35:00
5:55 AM,27.7,23.2,83,30.11,10.0,SSW,10.4,-,N/A,,Clear,200,2013-01-05 11:55:00
6:15 AM,28.0,23.2,82,30.11,10.0,SSW,8.1,-,N/A,,Clear,210,2013-01-05 12:15:00
6:35 AM,28.9,23.9,81,30.11,10.0,SSW,8.1,-,N/A,,Scattered Clouds,210,2013-01-05 12:35:00
7:15 AM,28.9,23.9,81,30.12,10.0,SSW,13.8,-,N/A,,Clear,210,2013-01-05 13:15:00
7:35 AM,29.3,23.9,80,30.12,10.0,SW,11.5,-,N/A,,Clear,220,2013-01-05 13:35:00
7:55 AM,29.1,23.9,81,30.13,10.0,SSW,13.8,-,N/A,,Clear,210,2013-01-05 13:55:00
8:15 AM,29.8,24.3,80,30.12,10.0,SSW,11.5,-,N/A,,Clear,210,2013-01-05 14:15:00
8:35 AM,30.0,24.8,81,30.12,10.0,SSW,12.7,-,N/A,,Clear,200,2013-01-05 14:35:00
8:55 AM,31.6,26.2,80,30.13,10.0,SSW,11.5,-,N/A,,Clear,200,2013-01-05 14:55:00
9:15 AM,32.9,27.0,79,30.13,10.0,SW,10.4,-,N/A,,Mostly Cloudy,220,2013-01-05 15:15:00
9:55 AM,33.8,27.5,78,30.13,10.0,SSW,11.5,-,N/A,,Overcast,210,2013-01-05 15:55:00
10:15 AM,35.6,28.4,75,30.12,10.0,SSW,16.1,-,N/A,,Overcast,210,2013-01-05 16:15:00
10:55 AM,37.4,29.3,73,30.11,10.0,SSW,13.8,-,N/A,,Overcast,210,2013-01-05 16:55:00
11:15 AM,39.6,30.2,69,30.09,10.0,SSW,15.0,-,N/A,,Mostly Cloudy,210,2013-01-05 17:15:00
11:55 AM,41.9,31.1,66,30.05,10.0,SW,23.0,27.6,N/A,,Scattered Clouds,230,2013-01-05 17:55:00
12:15 PM,41.7,31.3,66,30.04,10.0,SW,19.6,26.5,N/A,,Mostly Cloudy,230,2013-01-05 18:15:00
12:35 PM,41.7,30.9,66,30.02,10.0,SW,21.9,27.6,N/A,,Overcast,230,2013-01-05 18:35:00
12:55 PM,40.6,31.1,69,30.01,10.0,SW,23.0,28.8,N/A,,Overcast,230,2013-01-05 18:55:00
1:15 PM,40.6,31.6,70,30.00,10.0,SW,18.4,27.6,N/A,,Overcast,220,2013-01-05 19:15:00
1:35 PM,40.1,31.6,72,29.99,10.0,SW,19.6,25.3,N/A,,Overcast,230,2013-01-05 19:35:00
1:55 PM,39.7,31.6,73,29.99,10.0,SW,19.6,-,N/A,,Overcast,220,2013-01-05 19:55:00
2:15 PM,38.8,31.5,75,29.98,10.0,SW,19.6,25.3,N/A,,Overcast,230,2013-01-05 20:15:00
2:35 PM,39.2,31.8,75,29.97,10.0,SW,16.1,-,N/A,,Overcast,220,2013-01-05 20:35:00
2:55 PM,38.8,31.8,76,29.98,10.0,SW,18.4,-,N/A,,Overcast,230,2013-01-05 20:55:00
3:15 PM,38.5,32.0,78,29.98,10.0,SW,16.1,-,N/A,,Overcast,220,2013-01-05 21:15:00
3:35 PM,38.5,32.0,78,29.99,10.0,SW,13.8,-,N/A,,Overcast,230,2013-01-05 21:35:00
3:55 PM,38.1,32.0,79,29.99,10.0,SW,13.8,-,N/A,,Overcast,230,2013-01-05 21:55:00
4:15 PM,37.9,32.0,79,29.98,10.0,SW,12.7,-,N/A,,Overcast,220,2013-01-05 22:15:00
5:15 PM,36.3,31.3,82,29.98,10.0,SSW,12.7,-,N/A,,Mostly Cloudy,210,2013-01-05 23:15:00
5:35 PM,36.1,31.5,83,29.98,10.0,SSW,11.5,-,N/A,,Overcast,210,2013-01-05 23:35:00
5:55 PM,36.1,31.6,84,29.98,10.0,SW,11.5,-,N/A,,Overcast,220,2013-01-05 23:55:00
6:15 PM,36.3,31.8,84,29.98,10.0,SW,13.8,-,N/A,,Overcast,220,2013-01-06 00:15:00
6:35 PM,36.5,31.8,83,29.99,10.0,SW,11.5,-,N/A,,Overcast,220,2013-01-06 00:35:00
6:55 PM,36.5,31.6,83,29.99,10.0,SW,12.7,-,N/A,,Overcast,220,2013-01-06 00:55:00
7:15 PM,36.5,31.6,83,29.99,10.0,WSW,15.0,-,N/A,,Overcast,240,2013-01-06 01:15:00
7:35 PM,37.4,31.3,79,30.00,10.0,West,15.0,20.7,N/A,,Overcast,260,2013-01-06 01:35:00
7:55 PM,35.8,28.8,76,30.01,10.0,West,20.7,25.3,N/A,,Mostly Cloudy,280,2013-01-06 01:55:00
8:15 PM,33.3,26.6,77,30.02,10.0,WNW,18.4,-,N/A,,Scattered Clouds,290,2013-01-06 02:15:00
8:35 PM,31.8,25.7,78,30.03,10.0,WNW,17.3,21.9,N/A,,Scattered Clouds,300,2013-01-06 02:35:00
8:55 PM,30.9,23.5,74,30.04,10.0,WNW,21.9,26.5,N/A,,Scattered Clouds,300,2013-01-06 02:55:00
9:15 PM,30.0,22.5,73,30.04,10.0,WNW,19.6,26.5,N/A,,Scattered Clouds,290,2013-01-06 03:15:00
9:35 PM,29.5,22.1,74,30.04,10.0,WNW,19.6,25.3,N/A,,Clear,300,2013-01-06 03:35:00
9:55 PM,28.9,21.9,75,30.04,10.0,NW,19.6,25.3,N/A,,Clear,310,2013-01-06 03:55:00
10:15 PM,28.4,21.9,77,30.04,10.0,WNW,18.4,-,N/A,,Scattered Clouds,300,2013-01-06 04:15:00
10:35 PM,29.3,22.1,75,30.04,10.0,NW,19.6,27.6,N/A,,Overcast,310,2013-01-06 04:35:00
10:55 PM,29.7,21.9,73,30.05,10.0,NW,19.6,29.9,N/A,,Overcast,310,2013-01-06 04:55:00
11:15 PM,29.3,21.9,74,30.05,10.0,NW,19.6,26.5,N/A,,Overcast,310,2013-01-06 05:15:00
11:35 PM,29.3,22.6,76,30.05,10.0,WNW,18.4,24.2,N/A,,Overcast,300,2013-01-06 05:35:00
11:55 PM,28.9,21.9,75,30.05,10.0,WNW,20.7,27.6,N/A,,Overcast,300,2013-01-06 05:55:00